Weather History for LEBL - July, 2013

Change the Weather History Date:

Monday, July 29, 2013

  Actual Average Record
Temperature  
Mean Temperature 77 °F -  
Max Temperature 85 °F 80 °F 88 °F (2012)
Min Temperature 69 °F 68 °F 64 °F (2002)
Cooling Degree Days 12    
Growing Degree Days 27 (Base 50)    
Moisture  
Dew Point 60 °F    
Average Humidity 53    
Maximum Humidity 78    
Minimum Humidity 35    
Precipitation  
Precipitation 0.00 in 0.09 in - ()
Sea Level Pressure  
Sea Level Pressure 30.09 in    
Wind  
Wind Speed 9 mph ()    
Max Wind Speed 17 mph    
Max Gust Speed 25 mph    
Visibility 7.1 miles    
Events Rain , Thunderstorm    
Averages and records for this station are not official NWS values.
T = Trace of Precipitation, MM = Missing Value Source: Averaged Metar Reports

Daily Weather History Graph

Daily Weather History Graph

Search for Another Location

Airport or City:

Trip Planner

Search our weather history database for the weather conditions in past years. The results will help you decide how hot, cold, wet, or windy it might be!

Date:

Astronomy

Jul. 29, 2013 Rise Set
Actual Time 6:44 AM CEST 9:11 PM CEST
Civil Twilight 6:12 AM CEST 9:43 PM CEST
Nautical Twilight 5:33 AM CEST 10:21 PM CEST
Astronomical Twilight 4:49 AM CEST 11:05 PM CEST
Moon 12:20 AM CEST (7/29) 2:16 PM CEST (7/29)
Length of Visible Light 15h 30m
Length of Day
14h 27m
Waning Gibbous, 53% of the Moon is Illuminated
Jul 29
Waning Gibbous
Jul 29
Last Quarter
Aug 6
New
Aug 14
First Quarter
Aug 21
Full

Hourly Weather History & Observations

Time (CEST) Temp. Heat Index Dew Point Humidity Pressure Visibility Wind Dir Wind Speed Gust Speed Precip Events Conditions
12:00 AM 82.4 °F 85.4 °F 68.0 °F 62% 29.95 in 6.2 mi SW 12.7 mph - N/A   Partly Cloudy
12:30 AM 80.6 °F 83.2 °F 68.0 °F 65% 29.95 in 6.2 mi SW 10.4 mph - N/A   Partly Cloudy
1:00 AM 80.6 °F 83.2 °F 68.0 °F 65% 29.95 in 6.2 mi WSW 10.4 mph - N/A   Partly Cloudy
1:30 AM 80.6 °F 82.7 °F 66.2 °F 61% 29.98 in 6.2 mi West 9.2 mph - N/A   Partly Cloudy
2:00 AM 81 °F - 64 °F 48% 30.00 in 19 mi WNW 16.1 mph - -   Scattered Clouds
2:00 AM 82.4 °F 81.7 °F 55.4 °F 39% 30.01 in 6.2 mi NW 15.0 mph - N/A   Partly Cloudy
2:22 AM 77.0 °F - 60.8 °F 57% 29.98 in 6.2 mi WNW 15.0 mph - N/A Rain Rain
2:30 AM 75.2 °F - 62.6 °F 65% 30.01 in 6.2 mi NW 17.3 mph - N/A Rain , Thunderstorm Thunderstorms and Rain
3:00 AM 75.2 °F - 64.4 °F 69% 29.98 in 6.2 mi NW 8.1 mph - N/A Rain , Thunderstorm Thunderstorms and Rain
3:30 AM 75.2 °F - 62.6 °F 65% 29.98 in 6.2 mi Variable 2.3 mph - N/A Rain , Thunderstorm Light Rain
4:00 AM 71.6 °F - 64.4 °F 78% 29.98 in 6.2 mi NW 8.1 mph - N/A Thunderstorm Partly Cloudy
4:30 AM 71.6 °F - 64.4 °F 78% 29.95 in 6.2 mi NW 13.8 mph - N/A   Partly Cloudy
5:00 AM 71.6 °F - 64.4 °F 78% 29.98 in 6.2 mi NW 16.1 mph - N/A   Partly Cloudy
5:30 AM 71.6 °F - 64.4 °F 78% 29.98 in 6.2 mi NW 11.5 mph - N/A   Partly Cloudy
6:00 AM 71.6 °F - 62.6 °F 73% 29.98 in 6.2 mi NW 9.2 mph - N/A   Partly Cloudy
6:30 AM 71.6 °F - 62.6 °F 73% 30.01 in 6.2 mi WNW 8.1 mph - N/A   Partly Cloudy
7:00 AM 69.8 °F - 62.6 °F 78% 30.01 in 6.2 mi NW 11.5 mph - N/A   Partly Cloudy
7:30 AM 71.6 °F - 60.8 °F 69% 30.04 in 6.2 mi NW 11.5 mph - N/A   Partly Cloudy
8:00 AM 72 °F - 62 °F 63% 30.06 in 19 mi North 10.4 mph - -   Scattered Clouds
8:00 AM 71.6 °F - 60.8 °F 69% 30.04 in 6.2 mi NW 10.4 mph - N/A   Partly Cloudy
8:30 AM 73.4 °F - 59.0 °F 61% 30.06 in 6.2 mi NNW 9.2 mph - N/A   Partly Cloudy
9:00 AM 75.2 °F - 57.2 °F 53% 30.06 in 6.2 mi North 11.5 mph - N/A   Partly Cloudy
9:30 AM 77.0 °F - 55.4 °F 47% 30.09 in - North 11.5 mph - N/A   Clear
10:00 AM 78.8 °F - 55.4 °F 44% 30.09 in - North 13.8 mph 25.3 mph N/A   Clear
10:30 AM 80.6 °F 80.3 °F 53.6 °F 39% 30.09 in - North 9.2 mph - N/A   Clear
11:00 AM 80.6 °F - 51.8 °F 37% 30.12 in - NE 6.9 mph - N/A   Clear
11:30 AM 82.4 °F 82.9 °F 60.8 °F 48% 30.12 in - NNW 5.8 mph - N/A   Clear
12:00 PM 82.4 °F 82.9 °F 60.8 °F 48% 30.12 in - East 8.1 mph - N/A   Clear
12:30 PM 82.4 °F 83.9 °F 64.4 °F 54% 30.12 in 6.2 mi ESE 11.5 mph - N/A   Partly Cloudy
1:00 PM 82.4 °F 82.9 °F 60.8 °F 48% 30.15 in 6.2 mi SE 10.4 mph - N/A   Partly Cloudy
2:00 PM 83 °F - 62 °F 38% 30.16 in 25 mi South 9.2 mph - -   Scattered Clouds
2:00 PM 80.6 °F 81.5 °F 60.8 °F 51% 30.15 in 6.2 mi South 9.2 mph - N/A   Partly Cloudy
2:30 PM 82.4 °F 82.0 °F 57.2 °F 42% 30.15 in 6.2 mi South 9.2 mph - N/A   Partly Cloudy
3:00 PM 82.4 °F 82.0 °F 57.2 °F 42% 30.15 in 6.2 mi SSE 11.5 mph - N/A   Partly Cloudy
3:30 PM 84.2 °F 83.0 °F 55.4 °F 37% 30.15 in 6.2 mi SSE 10.4 mph - N/A   Partly Cloudy
4:00 PM 84.2 °F 83.5 °F 57.2 °F 40% 30.15 in 6.2 mi South 10.4 mph - N/A   Partly Cloudy
4:30 PM 84.2 °F 83.0 °F 55.4 °F 37% 30.15 in 6.2 mi South 10.4 mph - N/A   Partly Cloudy
5:00 PM 84.2 °F 83.5 °F 57.2 °F 40% 30.15 in 6.2 mi South 8.1 mph - N/A   Partly Cloudy
5:30 PM 84.2 °F 82.8 °F 53.6 °F 35% 30.15 in 6.2 mi SSE 9.2 mph - N/A   Partly Cloudy
6:00 PM 84.2 °F 83.0 °F 55.4 °F 37% 30.15 in 6.2 mi SE 10.4 mph - N/A   Partly Cloudy
6:30 PM 84.2 °F 82.8 °F 53.6 °F 35% 30.15 in 6.2 mi SE 10.4 mph - N/A   Partly Cloudy
7:00 PM 82.4 °F 81.7 °F 55.4 °F 39% 30.15 in 6.2 mi SE 9.2 mph - N/A   Partly Cloudy
7:30 PM 82.4 °F 82.5 °F 59.0 °F 45% 30.15 in 6.2 mi ESE 9.2 mph - N/A   Partly Cloudy
8:00 PM 82 °F - 60 °F 37% 30.17 in 19 mi SE 8.1 mph - -   Scattered Clouds
8:00 PM 82.4 °F 82.5 °F 59.0 °F 45% 30.15 in 6.2 mi ESE 8.1 mph - N/A   Partly Cloudy
8:30 PM 82.4 °F 82.5 °F 59.0 °F 45% 30.18 in 6.2 mi ESE 5.8 mph - N/A   Partly Cloudy
9:00 PM 80.6 °F 80.8 °F 57.2 °F 45% 30.18 in 6.2 mi ESE 3.5 mph - N/A   Partly Cloudy
9:30 PM 80.6 °F 81.1 °F 59.0 °F 48% 30.18 in 6.2 mi Variable 2.3 mph - N/A   Partly Cloudy
10:00 PM 80.6 °F 81.5 °F 60.8 °F 51% 30.18 in 6.2 mi SSE 2.3 mph - N/A   Partly Cloudy
10:30 PM 78.8 °F - 62.6 °F 57% 30.21 in 6.2 mi ESE 2.3 mph - N/A   Partly Cloudy
11:00 PM 78.8 °F - 62.6 °F 57% 30.21 in 6.2 mi Variable 2.3 mph - N/A   Partly Cloudy
11:30 PM 78.8 °F - 60.8 °F 54% 30.21 in 6.2 mi ESE 3.5 mph - N/A   Partly Cloudy